Weather Roundup
Issued by NWS Chicago, IL

Home | Current Version | Previous Version | Graphics & Text | Print | Product List | Glossary On
Versions: 1 2 3 4 5 6 7 8 9 10 11 12 13 14 15 16 17 18 19 20 21 22 23 24 25 26 27 28 29 30 31 32 33 34 35 36 37 38 39 40 41 42 43 44 45 46 47 48 49 50
000
NZUS59 KLOT 310012
HRRLOT

CHICAGO AREA WEATHER ROUNDUP
NATIONAL WEATHER SERVICE CHICAGO/ROMEOVILLE IL
700 PM CDT SUN AUG 30 2015

NOTE: "FAIR" INDICATES FEW OR NO CLOUDS BELOW 12,000 FEET WITH NO
SIGNIFICANT WEATHER AND/OR OBSTRUCTIONS TO VISIBILITY.

* THESE STATIONS ARE NOT UNDER NWS QUALITY CONTROL. THEY ALSO MAY NOT
  REPORT WEATHER SUCH AS PRECIPITATION OR FOG.

ILZ005-006-012>014-019>023-310100-
NORTHEAST ILLINOIS

CITY           SKY/WX    TMP DP  RH WIND       PRES   REMARKS
OHARE          PTCLDY    72  64  76 E6        30.01F
6HR MIN TEMP:  70; 6HR MAX TEMP:  77;

MIDWAY         CLEAR     73  64  73 E8        30.01F
6HR MIN TEMP:  73; 6HR MAX TEMP:  78;

AURORA         PTCLDY    73  66  78 CALM      30.02F
6HR MIN TEMP:  74; 6HR MAX TEMP:  78;

LANSING*       PTCLDY    71  65  82 CALM      30.02S
JOLIET*        CLEAR     77  66  68 CALM      30.02S
WAUKEGAN       CLEAR     66  63  90 SE3       30.02S
6HR MIN TEMP:  66; 6HR MAX TEMP:  70;

DUPAGE AIRPORT CLEAR     73  63  70 CALM      30.02S
6HR MIN TEMP:  72; 6HR MAX TEMP:  77;

WHEELING       CLEAR     69  63  81 E3        30.03S
6HR MIN TEMP:  69; 6HR MAX TEMP:  76;

KANKAKEE*      CLEAR     77  68  72 CALM      30.02F
MORRIS*        CLEAR     74  66  76 W5        30.01S
LEWIS AIRPORT* CLEAR     73  65  74 NW5       30.02S
NORTHERLY IS     N/A     68  64  87 NE5         N/A
$$

WIZ051-052-058>065-066-070>072-310100-
SOUTHEAST WISCONSIN

CITY           SKY/WX    TMP DP  RH WIND       PRES   REMARKS
MILWAUKEE      PTCLDY    66  61  84 SE6       30.01F
6HR MIN TEMP:  66; 6HR MAX TEMP:  72;

KENOSHA*       CLEAR     67  63  87 E6        30.03S
RACINE*        CLEAR     67  61  81 SE7       30.03F
BURLINGTON     CLEAR     67  63  86 S3        30.01F
WAUKESHA       CLEAR     66  63  88 W7        30.02F
WEST BEND      CLEAR     68  61  77 CALM      30.01F
$$

INZ001>003-010>013-019-020-310100-
NORTHWEST INDIANA

CITY           SKY/WX    TMP DP  RH WIND       PRES   REMARKS
GARY*          PTCLDY    72  66  83 VRB5      30.02F
MICHIGAN CITY* NOT AVBL
RENSSELAER*    NOT AVBL
VALPARAISO     CLEAR     73  67  81 CALM      30.03S
$$

LMZ740>746-310100-
SOUTHERN LAKE MICHIGAN

STATION/POSITION TIME  SKY/WX   TEMP WIND        PRES    VSBY
                                AIR  DIR/SP/G
                 (UTC)          (F)  (DEG/KT/KT) (MB)    (MI)
HARRISON CRIB    2300            68   60/  6/  7   N/A
BURNHAM HARBOR   0000            68   80/  4/  6   N/A
CALUMET HARBOR   NOT AVBL
BURNS HARBOR     2300            71   70/  8/ 10 1017.3S
MICHIGAN CITY    2300            69   40/  7/  7   N/A
$$

ABBREVIATIONS USED IN REMARKS
   TC - TEMPERATURE IN CELSIUS
  WCI - WIND CHILL INDEX
   HX - HEAT INDEX
  VSB - VISIBILITY
$$



USA.gov is the U.S. government's official web portal to all federal, state and local government web resources and services.